Time,TemperatureF,DewpointF,PressureIn,WindDirection,WindDirectionDegrees,WindSpeedMPH,WindSpeedGustMPH,Humidity,HourlyPrecipIn,Conditions,Clouds,dailyrainin,SolarRadiationWatts/m^2,SoftwareType,DateUTC
2013-05-24 00:02:00,65.9,64.7,29.68,SW,232,2.0,6.0,96,0.00,,,0.00,0,Wunderground v.1.15,2013-05-24 04:02:00,
2013-05-24 00:03:00,65.9,64.7,29.68,SW,232,2.0,6.0,96,0.00,,,0.00,0,Wunderground v.1.15,2013-05-24 04:03:00,
2013-05-24 00:05:00,65.9,64.7,29.68,West,260,2.0,6.0,96,0.00,,,0.00,0,Wunderground v.1.15,2013-05-24 04:05:00,
2013-05-24 00:07:00,65.9,64.7,29.68,WSW,257,3.0,6.0,96,0.00,,,0.00,0,Wunderground v.1.15,2013-05-24 04:07:00,
2013-05-24 00:09:00,65.9,64.7,29.68,WSW,256,3.0,3.0,96,0.00,,,0.00,0,Wunderground v.1.15,2013-05-24 04:09:00,
2013-05-24 00:14:00,65.9,65.0,29.68,WSW,255,2.0,3.0,97,0.00,,,0.00,0,Wunderground v.1.15,2013-05-24 04:14:00,
2013-05-24 00:19:00,65.8,64.9,29.68,SW,229,2.0,3.0,97,0.00,,,0.00,0,Wunderground v.1.15,2013-05-24 04:19:00,
2013-05-24 00:25:00,65.8,64.9,29.68,SW,230,2.0,3.0,97,0.00,,,0.00,0,Wunderground v.1.15,2013-05-24 04:25:00,
2013-05-24 00:30:00,65.8,64.9,29.68,SW,228,2.0,3.0,97,0.00,,,0.00,0,Wunderground v.1.15,2013-05-24 04:30:00,
2013-05-24 00:35:00,65.8,64.9,29.68,SW,227,2.0,4.0,97,0.00,,,0.00,0,Wunderground v.1.15,2013-05-24 04:35:00,
2013-05-24 00:41:00,65.7,64.8,29.68,SW,227,2.0,4.0,97,0.00,,,0.00,0,Wunderground v.1.15,2013-05-24 04:41:00,
2013-05-24 00:46:00,65.6,64.4,29.67,WSW,248,3.0,6.0,96,0.00,,,0.00,0,Wunderground v.1.15,2013-05-24 04:46:00,
2013-05-24 00:51:00,65.4,64.2,29.67,WSW,246,3.0,3.0,96,0.00,,,0.00,0,Wunderground v.1.15,2013-05-24 04:51:00,
2013-05-24 00:57:00,65.3,64.1,29.67,West,265,3.0,5.0,96,0.00,,,0.00,0,Wunderground v.1.15,2013-05-24 04:57:00,
2013-05-24 01:02:00,65.3,64.1,29.67,West,265,3.0,4.0,96,0.00,,,0.00,0,Wunderground v.1.15,2013-05-24 05:02:00,
2013-05-24 01:07:00,65.2,64.0,29.67,West,265,2.0,4.0,96,0.00,,,0.00,0,Wunderground v.1.15,2013-05-24 05:07:00,
2013-05-24 01:12:00,65.2,64.0,29.67,SW,234,2.0,3.0,96,0.00,,,0.00,0,Wunderground v.1.15,2013-05-24 05:12:00,
2013-05-24 01:18:00,65.1,63.9,29.67,SW,234,2.0,3.0,96,0.00,,,0.00,0,Wunderground v.1.15,2013-05-24 05:18:00,
2013-05-24 01:23:00,65.0,63.8,29.67,SW,233,2.0,2.0,96,0.00,,,0.00,0,Wunderground v.1.15,2013-05-24 05:23:00,
2013-05-24 01:28:00,64.9,63.7,29.67,SW,233,1.0,3.0,96,0.00,,,0.00,0,Wunderground v.1.15,2013-05-24 05:28:00,
2013-05-24 01:34:00,64.8,63.6,29.67,SW,232,1.0,2.0,96,0.00,,,0.00,0,Wunderground v.1.15,2013-05-24 05:34:00,
2013-05-24 01:39:00,64.8,63.6,29.66,SW,232,0.0,0.0,96,0.00,,,0.00,0,Wunderground v.1.15,2013-05-24 05:39:00,
2013-05-24 01:44:00,64.7,63.5,29.66,SW,232,0.0,0.0,96,0.00,,,0.00,0,Wunderground v.1.15,2013-05-24 05:44:00,
2013-05-24 01:50:00,64.6,63.4,29.66,SW,232,0.0,0.0,96,0.00,,,0.00,0,Wunderground v.1.15,2013-05-24 05:50:00,
2013-05-24 01:55:00,64.5,63.3,29.66,SW,232,0.0,2.0,96,0.00,,,0.00,0,Wunderground v.1.15,2013-05-24 05:55:00,
2013-05-24 02:00:00,64.4,63.5,29.66,SW,232,1.0,5.0,97,0.00,,,0.00,0,Wunderground v.1.15,2013-05-24 06:00:00,
2013-05-24 02:06:00,64.4,63.2,29.66,SW,232,2.0,5.0,96,0.00,,,0.01,0,Wunderground v.1.15,2013-05-24 06:06:00,
2013-05-24 02:11:00,64.3,63.4,29.66,SW,228,1.0,2.0,97,0.00,,,0.01,0,Wunderground v.1.15,2013-05-24 06:11:00,
2013-05-24 02:16:00,64.2,63.3,29.66,SSW,212,1.0,4.0,97,0.06,,,0.02,0,Wunderground v.1.15,2013-05-24 06:16:00,
2013-05-24 02:22:00,64.1,63.2,29.65,South,175,2.0,2.0,97,0.06,,,0.02,0,Wunderground v.1.15,2013-05-24 06:22:00,
2013-05-24 02:27:00,64.0,63.1,29.65,South,188,3.0,4.0,97,0.06,,,0.03,0,Wunderground v.1.15,2013-05-24 06:27:00,
2013-05-24 02:32:00,64.0,63.1,29.65,SSW,201,3.0,4.0,97,0.06,,,0.03,0,Wunderground v.1.15,2013-05-24 06:32:00,
2013-05-24 02:38:00,63.8,62.9,29.65,SSW,196,3.0,4.0,97,0.05,,,0.04,0,Wunderground v.1.15,2013-05-24 06:38:00,
2013-05-24 02:43:00,63.7,62.8,29.64,South,188,3.0,4.0,97,0.05,,,0.04,0,Wunderground v.1.15,2013-05-24 06:43:00,
2013-05-24 02:48:00,63.6,62.7,29.64,South,188,3.0,4.0,97,0.05,,,0.04,0,Wunderground v.1.15,2013-05-24 06:48:00,
2013-05-24 02:54:00,63.5,62.6,29.64,South,188,3.0,4.0,97,0.04,,,0.05,0,Wunderground v.1.15,2013-05-24 06:54:00,
2013-05-24 02:59:00,63.4,62.5,29.64,South,188,2.0,2.0,97,0.07,,,0.06,0,Wunderground v.1.15,2013-05-24 06:59:00,
2013-05-24 03:05:00,63.4,62.5,29.64,South,188,0.0,3.0,97,0.07,,,0.06,0,Wunderground v.1.15,2013-05-24 07:05:00,
2013-05-24 03:10:00,63.4,62.5,29.64,South,188,0.0,0.0,97,0.05,,,0.06,0,Wunderground v.1.15,2013-05-24 07:10:00,
2013-05-24 03:15:00,63.3,62.4,29.63,South,187,0.0,1.0,97,0.04,,,0.07,0,Wunderground v.1.15,2013-05-24 07:15:00,
2013-05-24 03:20:00,63.2,62.3,29.63,South,187,0.0,0.0,97,0.04,,,0.07,0,Wunderground v.1.15,2013-05-24 07:20:00,
2013-05-24 03:26:00,63.2,62.3,29.64,South,187,0.0,2.0,97,0.05,,,0.08,0,Wunderground v.1.15,2013-05-24 07:26:00,
2013-05-24 03:31:00,63.1,62.2,29.64,South,185,1.0,3.0,97,0.05,,,0.08,0,Wunderground v.1.15,2013-05-24 07:31:00,
2013-05-24 03:36:00,63.1,62.2,29.64,South,185,2.0,3.0,97,0.05,,,0.08,0,Wunderground v.1.15,2013-05-24 07:36:00,
2013-05-24 03:42:00,63.0,62.1,29.64,South,185,2.0,3.0,97,0.00,,,0.08,0,Wunderground v.1.15,2013-05-24 07:42:00,
2013-05-24 03:47:00,62.9,62.3,29.64,South,185,2.0,3.0,98,0.00,,,0.09,0,Wunderground v.1.15,2013-05-24 07:47:00,
2013-05-24 03:52:00,62.8,62.2,29.63,SSW,198,1.0,4.0,98,0.00,,,0.09,0,Wunderground v.1.15,2013-05-24 07:52:00,
2013-05-24 03:58:00,62.7,62.1,29.63,SSW,203,3.0,5.0,98,0.00,,,0.09,0,Wunderground v.1.15,2013-05-24 07:58:00,
2013-05-24 04:03:00,62.7,62.1,29.63,SSW,198,3.0,5.0,98,0.00,,,0.09,0,Wunderground v.1.15,2013-05-24 08:03:00,
2013-05-24 04:08:00,62.6,61.7,29.63,South,189,3.0,5.0,97,0.00,,,0.09,0,Wunderground v.1.15,2013-05-24 08:08:00,
2013-05-24 04:13:00,62.5,61.9,29.63,South,189,2.0,3.0,98,0.00,,,0.09,0,Wunderground v.1.15,2013-05-24 08:13:00,
2013-05-24 04:19:00,62.5,61.9,29.62,South,189,0.0,0.0,98,0.00,,,0.10,0,Wunderground v.1.15,2013-05-24 08:19:00,
2013-05-24 04:24:00,62.5,61.9,29.62,South,189,0.0,0.0,98,0.00,,,0.10,0,Wunderground v.1.15,2013-05-24 08:24:00,
2013-05-24 04:29:00,62.4,61.8,29.62,South,189,0.0,0.0,98,0.00,,,0.10,0,Wunderground v.1.15,2013-05-24 08:29:00,
2013-05-24 04:35:00,62.3,61.7,29.63,South,189,0.0,2.0,98,0.00,,,0.10,0,Wunderground v.1.15,2013-05-24 08:35:00,
2013-05-24 04:40:00,62.3,61.7,29.63,SW,217,1.0,3.0,98,0.00,,,0.10,0,Wunderground v.1.15,2013-05-24 08:40:00,
2013-05-24 04:45:00,62.3,61.7,29.63,SW,217,1.0,3.0,98,0.00,,,0.10,0,Wunderground v.1.15,2013-05-24 08:45:00,
2013-05-24 04:51:00,62.2,61.6,29.63,SW,217,1.0,1.0,98,0.00,,,0.10,0,Wunderground v.1.15,2013-05-24 08:51:00,
2013-05-24 04:56:00,62.2,61.6,29.63,SW,217,1.0,2.0,98,0.00,,,0.10,0,Wunderground v.1.15,2013-05-24 08:56:00,
2013-05-24 05:02:00,62.2,61.6,29.63,SW,217,1.0,7.0,98,0.00,,,0.10,0,Wunderground v.1.15,2013-05-24 09:02:00,
2013-05-24 05:07:00,62.2,61.6,29.63,SW,229,1.0,7.0,98,0.00,,,0.10,0,Wunderground v.1.15,2013-05-24 09:07:00,
2013-05-24 05:12:00,62.1,61.5,29.63,SW,229,2.0,3.0,98,0.00,,,0.10,0,Wunderground v.1.15,2013-05-24 09:12:00,
2013-05-24 05:18:00,62.1,61.5,29.63,SW,229,2.0,3.0,98,0.00,,,0.10,0,Wunderground v.1.15,2013-05-24 09:18:00,
2013-05-24 05:23:00,62.1,61.5,29.64,SW,229,2.0,3.0,98,0.00,,,0.10,0,Wunderground v.1.15,2013-05-24 09:23:00,
2013-05-24 05:28:00,62.1,61.5,29.64,SW,229,2.0,3.0,98,0.00,,,0.10,0,Wunderground v.1.15,2013-05-24 09:28:00,
2013-05-24 05:33:00,62.1,61.5,29.64,SW,229,1.0,2.0,98,0.00,,,0.10,0,Wunderground v.1.15,2013-05-24 09:33:00,
2013-05-24 05:39:00,62.0,61.4,29.64,SW,229,2.0,2.0,98,0.00,,,0.10,0,Wunderground v.1.15,2013-05-24 09:39:00,
2013-05-24 05:44:00,62.0,61.4,29.65,SW,229,1.0,2.0,98,0.00,,,0.10,5,Wunderground v.1.15,2013-05-24 09:44:00,
2013-05-24 05:50:00,62.0,61.4,29.65,SW,229,0.0,0.0,98,0.00,,,0.10,5,Wunderground v.1.15,2013-05-24 09:50:00,
2013-05-24 05:56:00,62.0,61.4,29.65,SW,229,0.0,0.0,98,0.00,,,0.10,9,Wunderground v.1.15,2013-05-24 09:56:00,
2013-05-24 06:02:00,62.0,61.4,29.65,SW,229,1.0,3.0,98,0.00,,,0.10,9,Wunderground v.1.15,2013-05-24 10:02:00,
2013-05-24 06:07:00,62.0,61.4,29.65,SW,229,1.0,3.0,98,0.00,,,0.10,12,Wunderground v.1.15,2013-05-24 10:07:00,
2013-05-24 06:13:00,62.0,61.4,29.64,SW,229,0.0,1.0,98,0.00,,,0.10,18,Wunderground v.1.15,2013-05-24 10:13:00,
2013-05-24 06:18:00,62.0,61.4,29.65,SW,229,1.0,2.0,98,0.00,,,0.10,12,Wunderground v.1.15,2013-05-24 10:18:00,
2013-05-24 06:24:00,62.0,61.4,29.66,East,90,2.0,10.0,98,0.00,,,0.10,0,Wunderground v.1.15,2013-05-24 10:24:00,
2013-05-24 06:29:00,61.0,60.1,29.66,ENE,59,6.0,9.0,97,0.00,,,0.10,0,Wunderground v.1.15,2013-05-24 10:29:00,
2013-05-24 06:34:00,60.2,59.1,29.66,NE,41,7.0,9.0,96,0.00,,,0.10,0,Wunderground v.1.15,2013-05-24 10:34:00,
2013-05-24 06:40:00,59.5,58.1,29.67,NE,49,6.0,7.0,95,0.00,,,0.10,0,Wunderground v.1.15,2013-05-24 10:40:00,
2013-05-24 06:45:00,59.0,57.3,29.67,NNE,12,6.0,8.0,94,0.00,,,0.10,7,Wunderground v.1.15,2013-05-24 10:45:00,
2013-05-24 06:50:00,58.5,56.8,29.68,ENE,74,5.0,7.0,94,0.00,,,0.11,11,Wunderground v.1.15,2013-05-24 10:50:00,
2013-05-24 06:56:00,58.1,56.4,29.69,NNE,25,3.0,7.0,94,0.15,,,0.12,9,Wunderground v.1.15,2013-05-24 10:56:00,
2013-05-24 07:01:00,57.7,56.0,29.69,NNE,18,3.0,6.0,94,0.12,,,0.13,11,Wunderground v.1.15,2013-05-24 11:01:00,
2013-05-24 07:07:00,57.2,55.5,29.70,North,5,4.0,6.0,94,0.10,,,0.14,14,Wunderground v.1.15,2013-05-24 11:07:00,
2013-05-24 07:12:00,56.8,54.8,29.70,NE,48,6.0,10.0,93,0.05,,,0.14,19,Wunderground v.1.15,2013-05-24 11:12:00,
2013-05-24 07:18:00,56.1,54.1,29.71,NNW,344,8.0,10.0,93,0.05,,,0.15,16,Wunderground v.1.15,2013-05-24 11:18:00,
2013-05-24 07:23:00,55.6,53.6,29.71,NE,45,7.0,8.0,93,0.05,,,0.15,28,Wunderground v.1.15,2013-05-24 11:23:00,
2013-05-24 07:28:00,55.3,53.6,29.72,ENE,57,7.0,9.0,94,0.05,,,0.16,21,Wunderground v.1.15,2013-05-24 11:28:00,
2013-05-24 07:34:00,54.9,53.2,29.72,NNE,15,6.0,7.0,94,0.10,,,0.17,18,Wunderground v.1.15,2013-05-24 11:34:00,
2013-05-24 07:39:00,54.7,53.0,29.73,NE,48,5.0,5.0,94,0.08,,,0.17,16,Wunderground v.1.15,2013-05-24 11:39:00,
2013-05-24 07:44:00,54.4,53.0,29.73,NE,38,6.0,8.0,95,0.05,,,0.18,12,Wunderground v.1.15,2013-05-24 11:44:00,
2013-05-24 07:50:00,54.2,52.8,29.74,ENE,61,6.0,10.0,95,0.05,,,0.18,11,Wunderground v.1.15,2013-05-24 11:50:00,
2013-05-24 07:55:00,54.0,52.6,29.74,NNE,15,7.0,11.0,95,0.05,,,0.18,30,Wunderground v.1.15,2013-05-24 11:55:00,
2013-05-24 08:01:00,53.8,52.4,29.74,NE,40,7.0,15.0,95,0.04,,,0.19,39,Wunderground v.1.15,2013-05-24 12:01:00,
2013-05-24 08:07:00,53.5,52.4,29.75,East,79,8.0,15.0,96,0.04,,,0.19,37,Wunderground v.1.15,2013-05-24 12:07:00,
2013-05-24 08:13:00,53.3,52.2,29.75,NE,46,7.0,16.0,96,0.04,,,0.19,32,Wunderground v.1.15,2013-05-24 12:13:00,
2013-05-24 08:18:00,53.2,52.1,29.75,NE,49,7.0,16.0,96,0.00,,,0.20,33,Wunderground v.1.15,2013-05-24 12:18:00,
2013-05-24 08:23:00,53.1,52.0,29.75,NE,49,6.0,10.0,96,0.00,,,0.20,46,Wunderground v.1.15,2013-05-24 12:23:00,
2013-05-24 08:29:00,53.1,52.0,29.76,NNE,32,6.0,6.0,96,0.00,,,0.20,37,Wunderground v.1.15,2013-05-24 12:29:00,
2013-05-24 08:34:00,53.0,52.2,29.77,NE,55,6.0,9.0,97,0.00,,,0.20,40,Wunderground v.1.15,2013-05-24 12:34:00,
2013-05-24 08:39:00,53.0,51.9,29.77,NE,52,5.0,8.0,96,0.00,,,0.20,53,Wunderground v.1.15,2013-05-24 12:39:00,
2013-05-24 08:45:00,52.9,51.8,29.77,East,92,6.0,9.0,96,0.00,,,0.20,74,Wunderground v.1.15,2013-05-24 12:45:00,
2013-05-24 08:50:00,52.6,51.8,29.78,ENE,60,7.0,8.0,97,0.00,,,0.20,79,Wunderground v.1.15,2013-05-24 12:50:00,
2013-05-24 08:55:00,52.6,51.8,29.78,East,81,6.0,8.0,97,0.00,,,0.20,67,Wunderground v.1.15,2013-05-24 12:55:00,
2013-05-24 09:01:00,52.5,51.7,29.78,NE,53,6.0,7.0,97,0.00,,,0.20,69,Wunderground v.1.15,2013-05-24 13:01:00,
2013-05-24 09:07:00,52.5,51.7,29.79,ENE,65,5.0,7.0,97,0.00,,,0.20,65,Wunderground v.1.15,2013-05-24 13:07:00,
2013-05-24 09:12:00,52.4,51.6,29.79,ENE,59,6.0,11.0,97,0.00,,,0.20,77,Wunderground v.1.15,2013-05-24 13:12:00,
2013-05-24 09:18:00,52.3,51.5,29.78,ENE,57,6.0,11.0,97,0.00,,,0.20,77,Wunderground v.1.15,2013-05-24 13:18:00,
2013-05-24 09:23:00,52.2,51.4,29.79,NNE,32,6.0,8.0,97,0.00,,,0.20,69,Wunderground v.1.15,2013-05-24 13:23:00,
2013-05-24 09:28:00,52.1,51.3,29.79,NE,51,6.0,11.0,97,0.00,,,0.20,72,Wunderground v.1.15,2013-05-24 13:28:00,
2013-05-24 09:34:00,52.0,51.2,29.79,NE,51,7.0,11.0,97,0.00,,,0.20,84,Wunderground v.1.15,2013-05-24 13:34:00,
2013-05-24 09:39:00,51.7,50.6,29.79,NE,42,7.0,7.0,96,0.00,,,0.20,114,Wunderground v.1.15,2013-05-24 13:39:00,
2013-05-24 09:45:00,51.6,50.5,29.79,NE,50,9.0,13.0,96,0.00,,,0.20,118,Wunderground v.1.15,2013-05-24 13:45:00,
2013-05-24 09:51:00,51.6,50.5,29.80,ENE,67,7.0,10.0,96,0.00,,,0.20,114,Wunderground v.1.15,2013-05-24 13:51:00,
2013-05-24 09:56:00,51.5,50.4,29.80,NE,47,7.0,16.0,96,0.00,,,0.20,74,Wunderground v.1.15,2013-05-24 13:56:00,
2013-05-24 10:01:00,51.5,50.4,29.81,NE,53,7.0,11.0,96,0.00,,,0.20,76,Wunderground v.1.15,2013-05-24 14:01:00,
2013-05-24 10:07:00,51.5,50.4,29.81,NE,52,7.0,11.0,96,0.00,,,0.20,137,Wunderground v.1.15,2013-05-24 14:07:00,
2013-05-24 10:13:00,51.7,50.6,29.81,ENE,61,7.0,7.0,96,0.00,,,0.20,100,Wunderground v.1.15,2013-05-24 14:13:00,
2013-05-24 10:19:00,51.7,50.6,29.82,NE,46,6.0,6.0,96,0.00,,,0.20,79,Wunderground v.1.15,2013-05-24 14:19:00,
2013-05-24 10:24:00,51.6,50.5,29.83,NE,41,6.0,8.0,96,0.00,,,0.20,51,Wunderground v.1.15,2013-05-24 14:24:00,
2013-05-24 10:30:00,51.5,50.1,29.83,NE,46,6.0,6.0,95,0.00,,,0.20,65,Wunderground v.1.15,2013-05-24 14:30:00,
2013-05-24 10:35:00,51.5,50.4,29.83,NE,51,6.0,8.0,96,0.00,,,0.20,42,Wunderground v.1.15,2013-05-24 14:35:00,
2013-05-24 10:41:00,51.5,50.4,29.83,East,88,6.0,8.0,96,0.00,,,0.20,54,Wunderground v.1.15,2013-05-24 14:41:00,
2013-05-24 10:47:00,51.3,49.9,29.83,ENE,63,6.0,9.0,95,0.00,,,0.20,86,Wunderground v.1.15,2013-05-24 14:47:00,
2013-05-24 10:52:00,51.2,50.1,29.84,NE,35,7.0,7.0,96,0.00,,,0.20,102,Wunderground v.1.15,2013-05-24 14:52:00,
2013-05-24 10:58:00,51.0,49.9,29.84,NNE,22,8.0,11.0,96,0.00,,,0.20,142,Wunderground v.1.15,2013-05-24 14:58:00,
2013-05-24 11:03:00,51.0,49.9,29.84,NNE,13,8.0,11.0,96,0.00,,,0.20,148,Wunderground v.1.15,2013-05-24 15:03:00,
2013-05-24 11:09:00,51.0,49.9,29.85,NE,51,8.0,8.0,96,0.00,,,0.20,120,Wunderground v.1.15,2013-05-24 15:09:00,
2013-05-24 11:15:00,50.8,49.7,29.85,NNE,28,7.0,8.0,96,0.00,,,0.20,134,Wunderground v.1.15,2013-05-24 15:15:00,
2013-05-24 11:21:00,50.8,49.7,29.85,ENE,61,6.0,9.0,96,0.00,,,0.20,102,Wunderground v.1.15,2013-05-24 15:21:00,
2013-05-24 11:26:00,50.9,49.8,29.85,ENE,66,6.0,9.0,96,0.00,,,0.20,97,Wunderground v.1.15,2013-05-24 15:26:00,
2013-05-24 11:32:00,50.9,49.5,29.85,ENE,62,6.0,8.0,95,0.00,,,0.20,123,Wunderground v.1.15,2013-05-24 15:32:00,
2013-05-24 11:37:00,50.9,49.5,29.85,NE,51,7.0,10.0,95,0.00,,,0.20,171,Wunderground v.1.15,2013-05-24 15:37:00,
2013-05-24 11:43:00,50.9,49.2,29.85,NE,34,8.0,12.0,94,0.00,,,0.20,227,Wunderground v.1.15,2013-05-24 15:43:00,
2013-05-24 11:48:00,51.3,49.6,29.85,ENE,67,8.0,15.0,94,0.00,,,0.20,181,Wunderground v.1.15,2013-05-24 15:48:00,
2013-05-24 11:54:00,51.5,49.8,29.85,NE,44,8.0,10.0,94,0.00,,,0.20,237,Wunderground v.1.15,2013-05-24 15:54:00,
2013-05-24 12:00:00,51.6,49.4,29.85,NE,49,8.0,8.0,92,0.00,,,0.20,279,Wunderground v.1.15,2013-05-24 16:00:00,
2013-05-24 12:05:00,51.9,49.6,29.85,NNE,30,9.0,16.0,92,0.00,,,0.20,388,Wunderground v.1.15,2013-05-24 16:05:00,
2013-05-24 12:11:00,52.3,49.8,29.85,ENE,63,10.0,10.0,91,0.00,,,0.20,248,Wunderground v.1.15,2013-05-24 16:11:00,
2013-05-24 12:16:00,52.3,49.8,29.86,NNE,12,9.0,15.0,91,0.00,,,0.20,197,Wunderground v.1.15,2013-05-24 16:16:00,
2013-05-24 12:22:00,52.1,49.3,29.86,NE,56,8.0,9.0,90,0.00,,,0.20,178,Wunderground v.1.15,2013-05-24 16:22:00,
2013-05-24 12:28:00,51.8,48.7,29.86,NE,51,8.0,13.0,89,0.00,,,0.20,146,Wunderground v.1.15,2013-05-24 16:28:00,
2013-05-24 12:33:00,51.7,48.9,29.86,NNE,30,8.0,10.0,90,0.00,,,0.20,121,Wunderground v.1.15,2013-05-24 16:33:00,
2013-05-24 12:38:00,51.5,48.7,29.86,NE,38,7.0,10.0,90,0.00,,,0.20,116,Wunderground v.1.15,2013-05-24 16:38:00,
2013-05-24 12:44:00,51.5,49.0,29.87,NE,49,7.0,13.0,91,0.00,,,0.20,111,Wunderground v.1.15,2013-05-24 16:44:00,
2013-05-24 12:49:00,51.5,49.0,29.87,NNE,31,6.0,6.0,91,0.00,,,0.20,114,Wunderground v.1.15,2013-05-24 16:49:00,
2013-05-24 12:55:00,51.4,48.9,29.86,ENE,75,7.0,16.0,91,0.00,,,0.20,102,Wunderground v.1.15,2013-05-24 16:55:00,
2013-05-24 13:01:00,51.3,48.5,29.87,NNE,29,7.0,17.0,90,0.00,,,0.20,139,Wunderground v.1.15,2013-05-24 17:01:00,
2013-05-24 13:07:00,51.4,49.2,29.87,NNE,30,6.0,17.0,92,0.00,,,0.20,132,Wunderground v.1.15,2013-05-24 17:07:00,
2013-05-24 13:13:00,51.5,49.3,29.87,NE,46,6.0,8.0,92,0.00,,,0.20,139,Wunderground v.1.15,2013-05-24 17:13:00,
2013-05-24 13:18:00,51.5,48.7,29.87,NE,34,7.0,12.0,90,0.00,,,0.20,123,Wunderground v.1.15,2013-05-24 17:18:00,
2013-05-24 13:24:00,51.3,48.5,29.87,NE,37,7.0,13.0,90,0.00,,,0.20,95,Wunderground v.1.15,2013-05-24 17:24:00,
2013-05-24 13:29:00,51.1,48.0,29.87,ENE,58,7.0,12.0,89,0.00,,,0.20,95,Wunderground v.1.15,2013-05-24 17:29:00,
2013-05-24 13:35:00,50.9,48.1,29.87,North,5,7.0,12.0,90,0.00,,,0.20,100,Wunderground v.1.15,2013-05-24 17:35:00,
2013-05-24 13:41:00,50.7,47.9,29.87,ENE,74,7.0,7.0,90,0.00,,,0.21,156,Wunderground v.1.15,2013-05-24 17:41:00,
2013-05-24 13:46:00,50.5,48.0,29.87,ENE,59,8.0,10.0,91,0.00,,,0.21,156,Wunderground v.1.15,2013-05-24 17:46:00,
2013-05-24 13:52:00,50.4,47.9,29.88,NE,39,9.0,17.0,91,0.00,,,0.21,169,Wunderground v.1.15,2013-05-24 17:52:00,
2013-05-24 13:57:00,50.3,48.1,29.88,NNE,26,8.0,17.0,92,0.00,,,0.21,141,Wunderground v.1.15,2013-05-24 17:57:00,
2013-05-24 14:02:00,50.2,48.0,29.89,ENE,72,7.0,13.0,92,0.00,,,0.21,116,Wunderground v.1.15,2013-05-24 18:02:00,
2013-05-24 14:07:00,50.1,48.2,29.89,NE,40,6.0,13.0,93,0.00,,,0.21,107,Wunderground v.1.15,2013-05-24 18:07:00,
2013-05-24 14:13:00,49.8,47.6,29.89,North,355,8.0,14.0,92,0.00,,,0.21,98,Wunderground v.1.15,2013-05-24 18:13:00,
2013-05-24 14:18:00,49.6,47.7,29.89,NNE,12,8.0,14.0,93,0.00,,,0.21,144,Wunderground v.1.15,2013-05-24 18:18:00,
2013-05-24 14:23:00,49.7,47.8,29.89,NE,40,7.0,9.0,93,0.00,,,0.22,165,Wunderground v.1.15,2013-05-24 18:23:00,
2013-05-24 14:29:00,49.9,48.2,29.89,ENE,61,6.0,6.0,94,0.00,,,0.22,148,Wunderground v.1.15,2013-05-24 18:29:00,
2013-05-24 14:35:00,50.1,48.4,29.89,ENE,70,5.0,13.0,94,0.09,,,0.23,148,Wunderground v.1.15,2013-05-24 18:35:00,
2013-05-24 14:40:00,50.0,48.3,29.89,NNE,20,6.0,7.0,94,0.07,,,0.24,156,Wunderground v.1.15,2013-05-24 18:40:00,
2013-05-24 14:45:00,50.0,48.6,29.89,ENE,57,6.0,12.0,95,0.07,,,0.24,144,Wunderground v.1.15,2013-05-24 18:45:00,
2013-05-24 14:50:00,50.0,48.6,29.89,NE,40,6.0,8.0,95,0.05,,,0.24,127,Wunderground v.1.15,2013-05-24 18:50:00,
2013-05-24 14:56:00,49.8,48.1,29.89,NNE,33,6.0,8.0,94,0.00,,,0.24,146,Wunderground v.1.15,2013-05-24 18:56:00,
2013-05-24 15:01:00,49.7,48.0,29.89,NE,45,7.0,16.0,94,0.00,,,0.25,153,Wunderground v.1.15,2013-05-24 19:01:00,
2013-05-24 15:06:00,49.8,48.7,29.89,North,360,6.0,16.0,96,0.09,,,0.26,153,Wunderground v.1.15,2013-05-24 19:06:00,
2013-05-24 15:12:00,49.9,48.8,29.89,NE,34,5.0,10.0,96,0.07,,,0.26,169,Wunderground v.1.15,2013-05-24 19:12:00,
2013-05-24 15:17:00,49.9,48.8,29.90,ENE,73,6.0,10.0,96,0.04,,,0.26,172,Wunderground v.1.15,2013-05-24 19:17:00,
2013-05-24 15:23:00,49.8,48.7,29.90,East,92,6.0,8.0,96,0.00,,,0.26,178,Wunderground v.1.15,2013-05-24 19:23:00,
2013-05-24 15:29:00,49.9,48.8,29.90,NE,52,6.0,10.0,96,0.00,,,0.27,171,Wunderground v.1.15,2013-05-24 19:29:00,
2013-05-24 15:34:00,49.9,48.8,29.90,NE,37,6.0,10.0,96,0.00,,,0.27,127,Wunderground v.1.15,2013-05-24 19:34:00,
2013-05-24 15:40:00,49.6,48.5,29.91,NE,53,6.0,8.0,96,0.04,,,0.28,84,Wunderground v.1.15,2013-05-24 19:40:00,
2013-05-24 15:45:00,49.3,47.9,29.91,NNE,19,6.0,10.0,95,0.04,,,0.28,74,Wunderground v.1.15,2013-05-24 19:45:00,
2013-05-24 15:51:00,49.1,48.0,29.91,ENE,75,6.0,6.0,96,0.04,,,0.28,56,Wunderground v.1.15,2013-05-24 19:51:00,
2013-05-24 15:56:00,48.9,47.8,29.91,NE,51,6.0,7.0,96,0.00,,,0.28,44,Wunderground v.1.15,2013-05-24 19:56:00,
2013-05-24 16:02:00,48.8,47.7,29.91,NE,39,7.0,12.0,96,0.00,,,0.29,44,Wunderground v.1.15,2013-05-24 20:02:00,
2013-05-24 16:07:00,48.6,47.2,29.91,NE,55,9.0,16.0,95,0.00,,,0.29,49,Wunderground v.1.15,2013-05-24 20:07:00,
2013-05-24 16:13:00,48.3,47.2,29.91,NE,38,9.0,12.0,96,0.04,,,0.30,69,Wunderground v.1.15,2013-05-24 20:13:00,
2013-05-24 16:19:00,48.2,47.1,29.91,NNE,32,8.0,8.0,96,0.10,,,0.31,81,Wunderground v.1.15,2013-05-24 20:19:00,
2013-05-24 16:24:00,48.0,46.9,29.91,NE,45,7.0,11.0,96,0.10,,,0.31,86,Wunderground v.1.15,2013-05-24 20:24:00,
2013-05-24 16:30:00,47.8,46.7,29.91,ENE,61,7.0,8.0,96,0.10,,,0.32,79,Wunderground v.1.15,2013-05-24 20:30:00,
2013-05-24 16:36:00,47.8,47.0,29.91,ENE,63,7.0,17.0,97,0.10,,,0.33,79,Wunderground v.1.15,2013-05-24 20:36:00,
2013-05-24 16:41:00,47.7,46.9,29.91,NE,55,8.0,11.0,97,0.06,,,0.33,77,Wunderground v.1.15,2013-05-24 20:41:00,
2013-05-24 16:48:00,47.7,46.9,29.91,NNE,13,8.0,12.0,97,0.04,,,0.33,72,Wunderground v.1.15,2013-05-24 20:48:00,
2013-05-24 16:53:00,47.5,46.7,29.91,NE,56,7.0,10.0,97,0.04,,,0.34,76,Wunderground v.1.15,2013-05-24 20:53:00,
2013-05-24 16:59:00,47.5,46.7,29.91,NE,44,8.0,10.0,97,0.04,,,0.34,70,Wunderground v.1.15,2013-05-24 20:59:00,
2013-05-24 17:05:00,47.5,46.7,29.92,NE,42,8.0,14.0,97,0.04,,,0.35,67,Wunderground v.1.15,2013-05-24 21:05:00,
2013-05-24 17:10:00,47.5,46.7,29.92,NE,53,8.0,9.0,97,0.04,,,0.35,67,Wunderground v.1.15,2013-05-24 21:10:00,
2013-05-24 17:16:00,47.3,46.5,29.92,NE,51,8.0,13.0,97,0.06,,,0.36,79,Wunderground v.1.15,2013-05-24 21:16:00,
2013-05-24 17:22:00,47.2,46.4,29.92,ENE,58,8.0,11.0,97,0.06,,,0.36,77,Wunderground v.1.15,2013-05-24 21:22:00,
2013-05-24 17:27:00,47.2,46.4,29.92,NE,46,9.0,11.0,97,0.07,,,0.37,69,Wunderground v.1.15,2013-05-24 21:27:00,
2013-05-24 17:33:00,47.1,46.3,29.92,NE,39,9.0,13.0,97,0.06,,,0.37,54,Wunderground v.1.15,2013-05-24 21:33:00,
2013-05-24 17:38:00,47.0,46.2,29.92,NE,40,8.0,13.0,97,0.04,,,0.38,56,Wunderground v.1.15,2013-05-24 21:38:00,
2013-05-24 17:43:00,46.9,46.1,29.92,NE,46,8.0,12.0,97,0.04,,,0.38,53,Wunderground v.1.15,2013-05-24 21:43:00,
2013-05-24 17:49:00,46.9,46.1,29.92,NE,53,7.0,9.0,97,0.04,,,0.38,53,Wunderground v.1.15,2013-05-24 21:49:00,
2013-05-24 17:54:00,46.8,46.0,29.93,NE,54,7.0,14.0,97,0.00,,,0.38,44,Wunderground v.1.15,2013-05-24 21:54:00,
2013-05-24 18:00:00,46.8,46.0,29.93,NNE,30,7.0,8.0,97,0.00,,,0.39,42,Wunderground v.1.15,2013-05-24 22:00:00,
2013-05-24 18:05:00,46.8,46.0,29.93,NE,56,6.0,8.0,97,0.00,,,0.39,37,Wunderground v.1.15,2013-05-24 22:05:00,
2013-05-24 18:11:00,46.8,46.0,29.93,NNE,32,6.0,13.0,97,0.00,,,0.39,30,Wunderground v.1.15,2013-05-24 22:11:00,
2013-05-24 18:16:00,46.8,46.0,29.93,NNE,30,7.0,13.0,97,0.04,,,0.40,28,Wunderground v.1.15,2013-05-24 22:16:00,
2013-05-24 18:21:00,46.8,46.0,29.94,NNE,28,8.0,9.0,97,0.04,,,0.40,33,Wunderground v.1.15,2013-05-24 22:21:00,
2013-05-24 18:27:00,46.7,45.6,29.93,NE,34,8.0,14.0,96,0.04,,,0.40,46,Wunderground v.1.15,2013-05-24 22:27:00,
2013-05-24 18:32:00,46.7,45.6,29.94,NNE,19,8.0,9.0,96,0.04,,,0.41,47,Wunderground v.1.15,2013-05-24 22:32:00,
2013-05-24 18:38:00,46.7,45.6,29.94,NNE,13,8.0,16.0,96,0.04,,,0.41,44,Wunderground v.1.15,2013-05-24 22:38:00,
2013-05-24 18:44:00,46.7,45.6,29.94,NE,43,8.0,10.0,96,0.06,,,0.42,46,Wunderground v.1.15,2013-05-24 22:44:00,
2013-05-24 18:49:00,46.7,45.6,29.94,NNE,14,8.0,8.0,96,0.06,,,0.42,35,Wunderground v.1.15,2013-05-24 22:49:00,
2013-05-24 18:55:00,46.6,45.5,29.95,North,9,8.0,11.0,96,0.04,,,0.42,35,Wunderground v.1.15,2013-05-24 22:55:00,
2013-05-24 19:00:00,46.6,45.5,29.95,NNE,32,7.0,12.0,96,0.00,,,0.42,30,Wunderground v.1.15,2013-05-24 23:00:00,
2013-05-24 19:06:00,46.7,45.6,29.95,North,350,6.0,13.0,96,0.00,,,0.42,26,Wunderground v.1.15,2013-05-24 23:06:00,
2013-05-24 19:11:00,46.7,45.6,29.95,NNW,331,7.0,8.0,96,0.00,,,0.43,25,Wunderground v.1.15,2013-05-24 23:11:00,
2013-05-24 19:16:00,46.6,45.5,29.95,North,5,6.0,8.0,96,0.00,,,0.43,19,Wunderground v.1.15,2013-05-24 23:16:00,
2013-05-24 19:22:00,46.6,45.5,29.95,NNE,26,6.0,6.0,96,0.00,,,0.43,18,Wunderground v.1.15,2013-05-24 23:22:00,
2013-05-24 19:28:00,46.6,45.5,29.95,North,10,6.0,7.0,96,0.00,,,0.43,19,Wunderground v.1.15,2013-05-24 23:28:00,
2013-05-24 19:33:00,46.5,45.4,29.95,North,10,7.0,11.0,96,0.00,,,0.43,16,Wunderground v.1.15,2013-05-24 23:33:00,
2013-05-24 19:39:00,46.4,45.3,29.95,NNE,33,7.0,7.0,96,0.00,,,0.44,7,Wunderground v.1.15,2013-05-24 23:39:00,
2013-05-24 19:44:00,46.4,45.3,29.95,NE,53,7.0,10.0,96,0.12,,,0.45,5,Wunderground v.1.15,2013-05-24 23:44:00,
2013-05-24 19:49:00,46.3,45.2,29.95,North,360,6.0,7.0,96,0.06,,,0.45,5,Wunderground v.1.15,2013-05-24 23:49:00,
2013-05-24 19:55:00,46.3,45.2,29.95,NE,36,5.0,9.0,96,0.05,,,0.46,0,Wunderground v.1.15,2013-05-24 23:55:00,
2013-05-24 20:01:00,46.2,45.1,29.95,North,355,6.0,11.0,96,0.08,,,0.47,0,Wunderground v.1.15,2013-05-25 00:01:00,
2013-05-24 20:07:00,46.1,45.0,29.95,North,11,7.0,11.0,96,0.08,,,0.47,0,Wunderground v.1.15,2013-05-25 00:07:00,
2013-05-24 20:12:00,46.0,44.9,29.96,NNW,336,6.0,7.0,96,0.06,,,0.48,0,Wunderground v.1.15,2013-05-25 00:12:00,
2013-05-24 20:17:00,45.9,44.8,29.96,NNE,32,6.0,11.0,96,0.06,,,0.48,0,Wunderground v.1.15,2013-05-25 00:17:00,
2013-05-24 20:22:00,45.8,44.7,29.96,NNE,26,7.0,12.0,96,0.05,,,0.48,0,Wunderground v.1.15,2013-05-25 00:22:00,
2013-05-24 20:28:00,45.8,44.7,29.97,North,355,6.0,6.0,96,0.00,,,0.48,0,Wunderground v.1.15,2013-05-25 00:28:00,
2013-05-24 20:33:00,45.8,44.7,29.97,North,5,5.0,8.0,96,0.00,,,0.48,0,Wunderground v.1.15,2013-05-25 00:33:00,
2013-05-24 20:39:00,45.8,44.7,29.97,North,350,5.0,5.0,96,0.00,,,0.48,0,Wunderground v.1.15,2013-05-25 00:39:00,
2013-05-24 20:44:00,45.8,44.7,29.97,North,5,4.0,6.0,96,0.00,,,0.48,0,Wunderground v.1.15,2013-05-25 00:44:00,
2013-05-24 20:49:00,45.8,44.7,29.98,NNW,344,5.0,5.0,96,0.00,,,0.48,0,Wunderground v.1.15,2013-05-25 00:49:00,
2013-05-24 20:55:00,45.8,44.7,29.98,North,355,6.0,9.0,96,0.00,,,0.48,0,Wunderground v.1.15,2013-05-25 00:55:00,
2013-05-24 21:01:00,45.7,44.6,29.97,NNE,32,7.0,12.0,96,0.00,,,0.49,0,Wunderground v.1.15,2013-05-25 01:01:00,
2013-05-24 21:06:00,45.7,44.6,29.98,NNE,29,7.0,12.0,96,0.00,,,0.49,0,Wunderground v.1.15,2013-05-25 01:06:00,
2013-05-24 21:11:00,45.7,44.6,29.98,NE,48,6.0,8.0,96,0.00,,,0.49,0,Wunderground v.1.15,2013-05-25 01:11:00,
2013-05-24 21:17:00,45.6,44.5,29.98,NNE,13,6.0,10.0,96,0.00,,,0.50,0,Wunderground v.1.15,2013-05-25 01:17:00,
2013-05-24 21:22:00,45.5,44.4,29.98,North,355,7.0,10.0,96,0.00,,,0.50,0,Wunderground v.1.15,2013-05-25 01:22:00,
2013-05-24 21:27:00,45.5,44.4,29.98,NNE,19,8.0,10.0,96,0.05,,,0.51,0,Wunderground v.1.15,2013-05-25 01:27:00,
2013-05-24 21:33:00,45.4,44.3,29.97,NNE,13,6.0,8.0,96,0.05,,,0.51,0,Wunderground v.1.15,2013-05-25 01:33:00,
2013-05-24 21:38:00,45.4,44.3,29.97,North,355,5.0,5.0,96,0.10,,,0.52,0,Wunderground v.1.15,2013-05-25 01:38:00,
2013-05-24 21:44:00,45.4,44.3,29.97,NNE,21,4.0,5.0,96,0.10,,,0.53,0,Wunderground v.1.15,2013-05-25 01:44:00,
2013-05-24 21:49:00,45.4,44.3,29.98,North,9,4.0,5.0,96,0.08,,,0.54,0,Wunderground v.1.15,2013-05-25 01:49:00,
2013-05-24 21:54:00,45.4,44.6,29.98,NNE,31,5.0,8.0,97,0.13,,,0.55,0,Wunderground v.1.15,2013-05-25 01:54:00,
2013-05-24 21:59:00,45.3,44.5,29.98,NNE,15,5.0,5.0,97,0.09,,,0.56,0,Wunderground v.1.15,2013-05-25 01:59:00,
2013-05-24 22:05:00,45.3,44.5,29.98,North,355,6.0,12.0,97,0.10,,,0.57,0,Wunderground v.1.15,2013-05-25 02:05:00,
2013-05-24 22:10:00,45.2,44.4,29.98,North,360,5.0,8.0,97,0.16,,,0.58,0,Wunderground v.1.15,2013-05-25 02:10:00,
2013-05-24 22:16:00,45.1,44.0,29.98,North,355,5.0,8.0,96,0.14,,,0.59,0,Wunderground v.1.15,2013-05-25 02:16:00,
2013-05-24 22:22:00,45.1,44.3,29.98,NNW,328,5.0,7.0,97,0.09,,,0.60,0,Wunderground v.1.15,2013-05-25 02:22:00,
2013-05-24 22:27:00,45.0,44.2,29.98,NNW,346,4.0,7.0,97,0.08,,,0.60,0,Wunderground v.1.15,2013-05-25 02:27:00,
2013-05-24 22:33:00,44.9,44.1,29.98,NNE,18,5.0,10.0,97,0.05,,,0.61,0,Wunderground v.1.15,2013-05-25 02:33:00,
2013-05-24 22:38:00,44.9,44.1,29.98,North,5,6.0,10.0,97,0.05,,,0.61,0,Wunderground v.1.15,2013-05-25 02:38:00,
2013-05-24 22:43:00,44.7,43.9,29.98,NNW,342,7.0,9.0,97,0.05,,,0.61,0,Wunderground v.1.15,2013-05-25 02:43:00,
2013-05-24 22:49:00,44.7,43.9,29.98,North,360,7.0,7.0,97,0.00,,,0.61,0,Wunderground v.1.15,2013-05-25 02:49:00,
2013-05-24 22:54:00,44.6,43.8,29.98,North,5,7.0,8.0,97,0.00,,,0.61,0,Wunderground v.1.15,2013-05-25 02:54:00,
2013-05-24 23:00:00,44.6,43.8,29.98,NNW,333,6.0,12.0,97,0.00,,,0.61,0,Wunderground v.1.15,2013-05-25 03:00:00,
2013-05-24 23:05:00,44.6,43.8,29.98,North,355,6.0,12.0,97,0.00,,,0.61,0,Wunderground v.1.15,2013-05-25 03:05:00,
2013-05-24 23:11:00,44.6,43.8,29.98,North,9,5.0,6.0,97,0.00,,,0.61,0,Wunderground v.1.15,2013-05-25 03:11:00,
2013-05-24 23:16:00,44.6,43.8,29.98,North,5,5.0,9.0,97,0.00,,,0.61,0,Wunderground v.1.15,2013-05-25 03:16:00,
2013-05-24 23:21:00,44.6,43.8,29.98,North,5,5.0,6.0,97,0.00,,,0.62,0,Wunderground v.1.15,2013-05-25 03:21:00,
2013-05-24 23:27:00,44.6,43.8,29.98,North,355,5.0,9.0,97,0.00,,,0.62,0,Wunderground v.1.15,2013-05-25 03:27:00,
2013-05-24 23:32:00,44.6,43.8,29.98,North,355,4.0,9.0,97,0.00,,,0.62,0,Wunderground v.1.15,2013-05-25 03:32:00,
2013-05-24 23:37:00,44.6,43.8,29.98,NNW,347,5.0,9.0,97,0.00,,,0.62,0,Wunderground v.1.15,2013-05-25 03:37:00,
2013-05-24 23:43:00,44.5,43.7,29.98,North,5,5.0,9.0,97,0.04,,,0.63,0,Wunderground v.1.15,2013-05-25 03:43:00,
2013-05-24 23:48:00,44.5,43.4,29.98,NNW,344,4.0,9.0,96,0.04,,,0.63,0,Wunderground v.1.15,2013-05-25 03:48:00,
2013-05-24 23:53:00,44.6,43.8,29.98,NNE,15,4.0,5.0,97,0.04,,,0.63,0,Wunderground v.1.15,2013-05-25 03:53:00,
2013-05-24 23:58:00,44.5,43.7,29.98,NNW,338,5.0,7.0,97,0.00,,,0.63,0,Wunderground v.1.15,2013-05-25 03:58:00,